Terminal Aerodrome Forecast
Issued by NWS Cleveland, OH

Home | Current Version | Previous Version | Graphics & Text | Print | Product List | Glossary On
Versions: 1 2 3 4 5 6 7 8 9 10 11 12 13 14 15 16 17 18 19 20 21
000
FTUS41 KCLE 182337
TAFCLE
TAF
KCLE 182337Z 1900/2006 05004KT P6SM FEW050
     FM190300 16003KT P6SM FEW250
     FM191200 24006KT P6SM SCT250
     FM191600 28007KT P6SM SCT040=

USA.gov is the U.S. government's official web portal to all federal, state and local government web resources and services.